Hourly Weather Bolshie Polyany

Today, 15 June, Tuesday

Time Temperature Precipitation Wind Pressure Humidity
00:00 +19°C° 0.2 mm 1 mps 749 mmHg 87%
01:00 +19°C° 0.2 mm 1 mps 749 mmHg 87%
02:00 +18°C° 0.2 mm 1 mps 749 mmHg 88%
03:00 +18°C° 0 mm 1 mps 749 mmHg 89%
04:00 +19°C° 0 mm 1 mps 749 mmHg 89%
05:00 +19°C° 0 mm 1 mps 749 mmHg 88%
06:00 +20°C° 0 mm 1 mps 749 mmHg 88%
07:00 +21°C° 0.1 mm 1 mps 749 mmHg 84%
08:00 +22°C° 0.1 mm 1 mps 748 mmHg 80%
09:00 +24°C° 0 mm 1 mps 748 mmHg 76%
10:00 +25°C° 0.7 mm 1 mps 748 mmHg 71%
11:00 +25°C° 0.7 mm 1 mps 748 mmHg 66%
12:00 +26°C° 0.7 mm 1 mps 748 mmHg 61%
13:00 +27°C° 0 mm 1 mps 747 mmHg 60%
14:00 +27°C° 0 mm 1 mps 747 mmHg 59%
15:00 +27°C° 0 mm 1 mps 747 mmHg 58%
16:00 +27°C° 0.3 mm 1 mps 746 mmHg 63%
17:00 +26°C° 0.3 mm 1 mps 746 mmHg 68%
18:00 +26°C° 0.3 mm 1 mps 746 mmHg 73%
19:00 +24°C° 0.7 mm 1 mps 746 mmHg 76%
20:00 +22°C° 0.7 mm 1 mps 746 mmHg 80%
21:00 +21°C° 0.7 mm 1 mps 746 mmHg 83%
22:00 +20°C° 0.5 mm 1 mps 745 mmHg 84%
23:00 +18°C° 0.5 mm 0 mps 745 mmHg 86%

Tomorrow, 16 June, Wednesday

Time Temperature Precipitation Wind Pressure Humidity
00:00 +17°C° 0.5 mm 0 mps 745 mmHg 87%
01:00 +19°C° 0 mm 1 mps 745 mmHg 88%
02:00 +19°C° 0 mm 1 mps 745 mmHg 89%
03:00 +17°C° 0 mm 2 mps 745 mmHg 90%
04:00 +18°C° 0 mm 2 mps 745 mmHg 91%
05:00 +18°C° 0 mm 2 mps 745 mmHg 92%
06:00 +18°C° 0 mm 2 mps 745 mmHg 92%
07:00 +20°C° 0 mm 2 mps 745 mmHg 88%
08:00 +21°C° 0 mm 3 mps 745 mmHg 84%
09:00 +22°C° 0 mm 3 mps 746 mmHg 80%
10:00 +24°C° 1.1 mm 3 mps 746 mmHg 77%
11:00 +25°C° 1.1 mm 4 mps 746 mmHg 75%
12:00 +25°C° 1.1 mm 5 mps 746 mmHg 73%
13:00 +25°C° 0.5 mm 5 mps 746 mmHg 73%
14:00 +25°C° 0.5 mm 5 mps 746 mmHg 73%
15:00 +25°C° 0.5 mm 5 mps 747 mmHg 73%
16:00 +25°C° 0.2 mm 5 mps 747 mmHg 74%
17:00 +25°C° 0.2 mm 4 mps 747 mmHg 75%
18:00 +23°C° 0.2 mm 4 mps 748 mmHg 77%
19:00 +21°C° 0.1 mm 4 mps 748 mmHg 80%
20:00 +20°C° 0.1 mm 3 mps 749 mmHg 84%
21:00 +18°C° 0.1 mm 3 mps 749 mmHg 88%
22:00 +17°C° 0 mm 3 mps 750 mmHg 88%
23:00 +17°C° 0 mm 3 mps 750 mmHg 88%

Day after tomorrow, 17 June, Thursday

Time Temperature Precipitation Wind Pressure Humidity
00:00 +16°C° 0 mm 3 mps 751 mmHg 88%
01:00 +14°C° 0 mm 3 mps 751 mmHg 85%
02:00 +13°C° 0 mm 3 mps 752 mmHg 82%
03:00 +12°C° 0 mm 3 mps 752 mmHg 80%
04:00 +12°C° 0 mm 3 mps 753 mmHg 80%
05:00 +12°C° 0 mm 3 mps 753 mmHg 80%
06:00 +13°C° 0 mm 3 mps 753 mmHg 80%
07:00 +14°C° 0 mm 3 mps 754 mmHg 75%
08:00 +17°C° 0 mm 3 mps 754 mmHg 70%
09:00 +19°C° 0 mm 4 mps 754 mmHg 64%
10:00 +20°C° 0 mm 4 mps 755 mmHg 60%
11:00 +21°C° 0 mm 4 mps 755 mmHg 56%
12:00 +22°C° 0 mm 4 mps 755 mmHg 52%
13:00 +22°C° 0 mm 4 mps 755 mmHg 51%
14:00 +24°C° 0 mm 3 mps 755 mmHg 51%
15:00 +24°C° 0 mm 3 mps 755 mmHg 50%
16:00 +24°C° 0 mm 3 mps 755 mmHg 55%
17:00 +22°C° 0 mm 3 mps 755 mmHg 61%
18:00 +22°C° 0 mm 3 mps 755 mmHg 66%
19:00 +20°C° 0 mm 3 mps 756 mmHg 68%
20:00 +18°C° 0 mm 3 mps 756 mmHg 71%
21:00 +16°C° 0 mm 3 mps 756 mmHg 73%
22:00 +16°C° 0 mm 3 mps 756 mmHg 75%
23:00 +15°C° 0 mm 2 mps 757 mmHg 76%

18 June, Friday

Time Temperature Precipitation Wind Pressure Humidity
00:00 +14°C° 0 mm 2 mps 757 mmHg 77%
01:00 +14°C° 0 mm 2 mps 757 mmHg 78%
02:00 +14°C° 0 mm 2 mps 757 mmHg 79%
03:00 +14°C° 0 mm 1 mps 757 mmHg 80%
04:00 +14°C° 0 mm 1 mps 758 mmHg 80%
05:00 +15°C° 0 mm 1 mps 758 mmHg 81%
06:00 +16°C° 0 mm 1 mps 758 mmHg 81%
07:00 +18°C° 0 mm 1 mps 758 mmHg 76%
08:00 +20°C° 0 mm 1 mps 759 mmHg 72%
09:00 +21°C° 0 mm 1 mps 759 mmHg 67%
10:00 +21°C° 0 mm 2 mps 759 mmHg 63%
11:00 +23°C° 0 mm 2 mps 759 mmHg 59%
12:00 +24°C° 0 mm 2 mps 759 mmHg 55%
13:00 +24°C° 0 mm 1 mps 759 mmHg 54%
14:00 +25°C° 0 mm 1 mps 758 mmHg 53%
15:00 +25°C° 0 mm 1 mps 758 mmHg 53%
16:00 +25°C° 0 mm 1 mps 758 mmHg 56%
17:00 +25°C° 0 mm 1 mps 758 mmHg 58%
18:00 +25°C° 0 mm 1 mps 758 mmHg 61%
19:00 +23°C° 0 mm 1 mps 758 mmHg 65%
20:00 +21°C° 0 mm 1 mps 758 mmHg 69%
21:00 +19°C° 0 mm 1 mps 758 mmHg 73%
22:00 +19°C° 0 mm 1 mps 758 mmHg 75%
23:00 +18°C° 0 mm 1 mps 758 mmHg 77%

19 June, Saturday

Time Temperature Precipitation Wind Pressure Humidity
00:00 +16°C° 0 mm 1 mps 758 mmHg 79%
01:00 +16°C° 0 mm 1 mps 759 mmHg 80%
02:00 +15°C° 0 mm 1 mps 759 mmHg 82%
03:00 +15°C° 0 mm 1 mps 759 mmHg 84%
04:00 +16°C° 0 mm 1 mps 759 mmHg 83%
05:00 +18°C° 0 mm 1 mps 759 mmHg 82%
06:00 +18°C° 0 mm 1 mps 760 mmHg 81%
07:00 +20°C° 0 mm 1 mps 760 mmHg 77%
08:00 +21°C° 0 mm 1 mps 760 mmHg 74%
09:00 +23°C° 0 mm 1 mps 759 mmHg 70%
10:00 +24°C° 0 mm 2 mps 759 mmHg 67%
11:00 +24°C° 0 mm 2 mps 759 mmHg 63%
12:00 +25°C° 0 mm 2 mps 759 mmHg 60%
13:00 +26°C° 0 mm 2 mps 759 mmHg 59%
14:00 +26°C° 0 mm 2 mps 758 mmHg 58%
15:00 +26°C° 0 mm 2 mps 758 mmHg 57%
16:00 +26°C° 0 mm 2 mps 758 mmHg 61%
17:00 +26°C° 0 mm 2 mps 758 mmHg 64%
18:00 +26°C° 0 mm 1 mps 757 mmHg 68%
19:00 +24°C° 0 mm 1 mps 757 mmHg 72%
20:00 +22°C° 0 mm 1 mps 757 mmHg 76%
21:00 +20°C° 0 mm 1 mps 757 mmHg 81%
22:00 +20°C° 0 mm 1 mps 757 mmHg 82%
23:00 +19°C° 0 mm 1 mps 758 mmHg 84%

20 June, Sunday

Time Temperature Precipitation Wind Pressure Humidity
00:00 +17°C° 0 mm 2 mps 758 mmHg 85%
01:00 +17°C° 0 mm 2 mps 758 mmHg 86%
02:00 +16°C° 0 mm 2 mps 758 mmHg 88%
03:00 +16°C° 0 mm 2 mps 758 mmHg 89%
04:00 +18°C° 0 mm 1 mps 758 mmHg 87%
05:00 +19°C° 0 mm 1 mps 758 mmHg 86%
06:00 +19°C° 0 mm 1 mps 758 mmHg 85%
07:00 +21°C° 0 mm 1 mps 758 mmHg 80%
08:00 +22°C° 0 mm 1 mps 758 mmHg 76%
09:00 +24°C° 0 mm 1 mps 758 mmHg 71%
10:00 +25°C° 0 mm 1 mps 757 mmHg 68%
11:00 +26°C° 0 mm 1 mps 757 mmHg 64%
12:00 +27°C° 0 mm 1 mps 757 mmHg 60%
13:00 +27°C° 0 mm 1 mps 757 mmHg 58%
14:00 +27°C° 0 mm 1 mps 757 mmHg 57%
15:00 +28°C° 0 mm 1 mps 756 mmHg 55%
16:00 +28°C° 0 mm 1 mps 756 mmHg 58%
17:00 +27°C° 0 mm 1 mps 756 mmHg 60%
18:00 +25°C° 0 mm 0 mps 756 mmHg 63%
19:00 +24°C° 0 mm 0 mps 756 mmHg 68%
20:00 +22°C° 0 mm 0 mps 755 mmHg 73%
21:00 +20°C° 0 mm 0 mps 755 mmHg 78%
22:00 +19°C° 0 mm 0 mps 755 mmHg 80%
23:00 +19°C° 0 mm 0 mps 755 mmHg 81%
Show more